[[{"header":{"parameterUnit":"m.s-1","parameterCategory":1,"la1":30.2991,"la2":30.254,"lo1":-89.0895,"lo2":-89.0444,"dy":0.0017,"dx":0.0017,"nx":28,"ny":28,"refTime":"2024-05-02T21:00:00:Z","depth":0,"parameterNumber":2,"parameterNumberName":"U-component_of_WINDS"},"data":[0,0,0,0,0,0,0,0,0,0,0,0,0,0,0,0,0,0,0,0,0,0,0,0,0,0,0,0,0,0,0,0,0,0,0,0,0,0,0,0,0,0,0,0,0,0,0,0,0,0,0,0,0,0,0,0,0,0,-1.0223,-1.0223,0,-1.0201,-1.02,-1.02,-1.0173,-1.0173,-1.0172,-1.0172,-1.0148,-1.0148,-1.0147,0,0,0,0,0,0,0,0,0,0,0,0,0,-1.0242,-1.0242,-1.0223,-1.0223,-1.0222,-1.0201,-1.02,-1.02,-1.0173,-1.0173,-1.0172,-1.0172,-1.0148,-1.0148,-1.0147,0,0,0,0,0,0,0,0,0,0,0,0,0,-1.0228,-1.0242,-1.0223,-1.0206,-1.0205,-1.0201,-1.02,-1.02,-1.0173,-1.0173,-1.0172,-1.0171,-1.0148,-1.0148,-1.0147,-1.0157,0,0,-1.0146,-1.0146,0,0,0,0,0,0,0,0,-1.0229,-1.0227,-1.0209,-1.0208,-1.0206,-1.0189,-1.0198,-1.0186,-1.0173,-1.0185,-1.0172,-1.0171,-1.0162,-1.016,-1.0158,-1.0156,-1.0155,-1.0146,-1.0146,-1.0146,-1.0146,0,0,0,0,0,0,0,-1.023,-1.0228,-1.0214,-1.0209,-1.0207,-1.02,-1.0197,-1.0196,-1.0177,-1.0184,-1.0182,-1.018,-1.0161,-1.0158,-1.0157,-1.0155,-1.0146,-1.0146,-1.0146,-1.0145,-1.0161,-1.0162,0,0,0,0,0,0,-1.0233,-1.0229,-1.0215,-1.0213,-1.0216,-1.02,-1.0197,-1.0195,-1.0177,-1.0174,-1.018,-1.0179,-1.0159,-1.0157,-1.0156,-1.0166,-1.0146,-1.0145,-1.0145,-1.016,-1.0161,-1.0162,0,0,0,0,0,0,-1.0234,-1.0232,-1.0216,-1.0221,-1.0218,-1.02,-1.0198,-1.0195,-1.0192,-1.0174,-1.0171,-1.0181,-1.0158,-1.0156,-1.0157,-1.0165,-1.0145,-1.0145,-1.016,-1.0161,-1.0161,-1.0188,0,0,0,0,0,0,-1.0235,-1.0233,-1.0236,-1.0221,-1.0218,-1.0218,-1.0199,-1.0195,-1.0191,-1.0189,-1.0174,-1.0171,-1.0158,-1.0158,-1.0157,-1.0164,-1.0145,-1.0159,-1.016,-1.0161,-1.0186,-1.0189,-1.0192,0,0,0,0,0,-1.0235,-1.0244,-1.0237,-1.0235,-1.0222,-1.0218,-1.0216,-1.0201,-1.0192,-1.0196,-1.0185,-1.0171,-1.0165,-1.0158,-1.0157,-1.0164,-1.0158,-1.016,-1.0161,-1.0184,-1.0189,-1.0192,0,0,0,0,0,0,-1.026,-1.0242,-1.0233,-1.0238,-1.023,-1.0214,-1.0217,-1.0206,-1.02,-1.0198,-1.018,-1.0177,-1.018,-1.0172,-1.0165,-1.0173,-1.0159,-1.0161,-1.0178,-1.0182,-1.0185,-1.0186,-1.0144,0,0,0,0,0,-1.0267,-1.0265,-1.0249,-1.0254,-1.0251,-1.0235,-1.0233,-1.0222,-1.0213,-1.0209,-1.0198,-1.019,-1.0186,-1.0183,-1.0179,-1.0185,-1.0181,-1.0189,-1.0193,-1.0195,-1.0196,-1.0199,-1.0202,-1.0167,-1.0166,-1.0166,0,0,-1.0279,-1.0269,-1.0269,-1.0259,-1.0252,-1.0251,-1.0232,-1.0232,-1.023,-1.0209,-1.0209,-1.0201,-1.019,-1.0194,-1.0195,-1.0188,-1.0206,-1.0197,-1.0199,-1.0199,-1.0201,-1.0204,-1.0207,-1.0167,-1.0167,-1.0167,0,0,-1.0301,-1.0293,-1.0297,-1.029,-1.0279,-1.0269,-1.027,-1.0256,-1.025,-1.025,-1.0234,-1.0232,-1.0226,-1.0219,-1.0214,-1.0235,-1.0222,-1.0234,-1.025,-1.0253,-1.0256,-1.0258,-1.0265,-1.0268,-1.0235,-1.0235,-1.0235,0,-1.0317,-1.0315,-1.03,-1.0301,-1.0297,-1.0278,-1.0282,-1.0276,-1.0264,-1.0262,-1.0254,-1.0246,-1.0237,-1.0239,-1.0244,-1.0242,-1.0242,-1.0235,-1.0257,-1.0259,-1.0261,-1.0267,-1.027,-1.0237,-1.0237,-1.0236,-1.0236,0,-1.0336,-1.0335,-1.0339,-1.0329,-1.0325,-1.0327,-1.0313,-1.0311,-1.0301,-1.0292,-1.0292,-1.0281,-1.0274,-1.0274,-1.0264,-1.0275,-1.0271,-1.026,-1.0246,-1.0266,-1.0272,-1.0274,-1.0239,-1.0238,-1.0238,-1.0237,0,0,-1.0372,-1.0354,-1.0356,-1.0351,-1.0338,-1.0337,-1.0338,-1.0332,-1.0331,-1.0324,-1.0324,-1.032,-1.031,-1.0305,-1.0294,-1.0297,-1.0314,-1.0286,-1.0286,-1.0291,-1.0325,-1.0332,-1.0335,-1.0306,-1.0306,-1.0307,-1.0325,0,-1.0391,-1.0392,-1.0379,-1.0384,-1.0382,-1.0365,-1.0367,-1.0359,-1.035,-1.0348,-1.0338,-1.0335,-1.0323,-1.032,-1.0322,-1.0311,-1.032,-1.031,-1.0306,-1.0306,-1.0308,-1.0338,-1.0346,-1.0364,-1.0328,-1.0328,-1.0328,0,-1.0413,-1.0408,-1.0412,-1.04,-1.0399,-1.04,-1.0394,-1.0391,-1.0383,-1.0376,-1.0371,-1.0359,-1.036,-1.0347,-1.0347,-1.0341,-1.0338,-1.0333,-1.0333,-1.0332,-1.0318,-1.0337,-1.0369,-1.0372,-1.0332,-1.0331,-1.0331,0,-1.0438,-1.0432,-1.0434,-1.0431,-1.0416,-1.0418,-1.0412,-1.0402,-1.04,-1.0394,-1.0392,-1.0386,-1.0383,-1.0379,-1.0366,-1.0358,-1.0367,-1.0353,-1.0361,-1.0362,-1.0363,-1.0363,-1.0395,-1.0363,-1.0363,-1.0363,-1.0363,0,-1.046,-1.0464,-1.0445,-1.0447,-1.045,-1.0435,-1.0439,-1.0432,-1.0424,-1.0423,-1.0408,-1.0408,-1.0391,-1.0388,-1.0378,-1.038,-1.0378,-1.0373,-1.037,-1.0374,-1.0375,-1.0371,-1.037,-1.0364,-1.0364,-1.0364,-1.0363,0,-1.0488,-1.0476,-1.0477,-1.0464,-1.0461,-1.0464,-1.0453,-1.0453,-1.0444,-1.0444,-1.0443,-1.0428,-1.0425,-1.0412,-1.0405,-1.0398,-1.0403,-1.0398,-1.0406,-1.0404,-1.0413,-1.0412,-1.0443,-1.0446,-1.0413,-1.0413,-1.0414,0,-1.0503,-1.0505,-1.0493,-1.0491,-1.0486,-1.0484,-1.0482,-1.0467,-1.0465,-1.0456,-1.0457,-1.0453,-1.0449,-1.0444,-1.0433,-1.0428,-1.0422,-1.0434,-1.0421,-1.0425,-1.0422,-1.0421,-1.0421,-1.0436,-1.0436,-1.0437,-1.0437,0,-1.053,-1.0524,-1.0521,-1.0516,-1.0513,-1.0508,-1.0502,-1.0502,-1.0486,-1.0485,-1.0481,-1.0478,-1.0472,-1.0468,-1.0461,-1.0455,-1.0443,-1.0441,-1.0443,-1.0446,-1.0451,-1.0448,-1.0413,-1.044,-1.044,-1.044,-1.044,-1.0439,-1.0551,-1.0553,-1.0544,-1.0541,-1.0536,-1.0531,-1.0531,-1.0522,-1.0519,-1.0513,-1.0505,-1.0503,-1.0494,-1.0484,-1.0479,-1.0477,-1.047,-1.0473,-1.0473,-1.0474,-1.0475,-1.0452,-1.0476,-1.0475,-1.0475,-1.0475,-1.0475,0,-1.0577,-1.0571,-1.0569,-1.0561,-1.0559,-1.0549,-1.0543,-1.0541,-1.054,-1.0533,-1.0529,-1.0526,-1.0522,-1.0511,-1.0506,-1.0506,-1.0501,-1.0505,-1.0505,-1.0503,-1.0482,-1.0481,-1.051,-1.051,-1.051,-1.051,-1.051,-1.051,-1.059,-1.0592,-1.0585,-1.0584,-1.0578,-1.0576,-1.0573,-1.0569,-1.0563,-1.056,-1.0557,-1.055,-1.0542,-1.0536,-1.0532,-1.0529,-1.0527,-1.0533,-1.0529,-1.0508,-1.0505,-1.0502,-1.0501,-1.0533,-1.0533,-1.055,-1.0551,-1.0551]},{"header":{"parameterUnit":"m.s-1","parameterCategory":1,"la1":30.2991,"la2":30.254,"lo1":-89.0895,"lo2":-89.0444,"dy":0.0017,"dx":0.0017,"nx":28,"ny":28,"refTime":"2024-05-02T21:00:00:Z","depth":0,"parameterNumber":3,"parameterNumberName":"V-component_of_WINDS"},"data":[0,0,0,0,0,0,0,0,0,0,0,0,0,0,0,0,0,0,0,0,0,0,0,0,0,0,0,0,0,0,0,0,0,0,0,0,0,0,0,0,0,0,0,0,0,0,0,0,0,0,0,0,0,0,0,0,0,0,0.7077,0.7077,0,0.7084,0.7084,0.7084,0.7062,0.7061,0.706,0.706,0.7067,0.7067,0.7068,0,0,0,0,0,0,0,0,0,0,0,0,0,0.7043,0.7044,0.7077,0.7077,0.7077,0.7084,0.7084,0.7085,0.7062,0.7061,0.706,0.7059,0.7066,0.7067,0.7068,0,0,0,0,0,0,0,0,0,0,0,0,0,0.7055,0.7044,0.7077,0.7067,0.7066,0.7084,0.7084,0.7085,0.7062,0.7061,0.706,0.7059,0.7066,0.7067,0.7069,0.7097,0,0,0.7072,0.7073,0,0,0,0,0,0,0,0,0.7054,0.7056,0.7068,0.7067,0.7066,0.7071,0.7075,0.7089,0.7062,0.7063,0.706,0.7058,0.7069,0.707,0.7074,0.7097,0.7098,0.7072,0.7073,0.7074,0.7074,0,0,0,0,0,0,0,0.7054,0.7056,0.708,0.7068,0.7067,0.7062,0.7062,0.7078,0.7072,0.7063,0.7062,0.7063,0.7068,0.7072,0.7074,0.7098,0.7072,0.7074,0.7074,0.7075,0.7147,0.7148,0,0,0,0,0,0,0.7054,0.7055,0.708,0.708,0.7058,0.7063,0.7064,0.7071,0.7072,0.7071,0.7064,0.7062,0.7071,0.7072,0.7074,0.7108,0.7074,0.7075,0.7076,0.7146,0.7147,0.7148,0,0,0,0,0,0,0.7053,0.7057,0.7079,0.7067,0.707,0.7065,0.7073,0.7071,0.7075,0.7072,0.7071,0.7069,0.707,0.7072,0.7092,0.7108,0.7075,0.7077,0.7144,0.7146,0.7148,0.7176,0,0,0,0,0,0,0.7053,0.7056,0.7067,0.7068,0.707,0.7097,0.7074,0.7072,0.7078,0.7075,0.7077,0.7076,0.7069,0.709,0.7093,0.7109,0.7078,0.7143,0.7145,0.7147,0.7174,0.7179,0.7183,0,0,0,0,0,0.7052,0.7074,0.7068,0.7071,0.7084,0.7098,0.71,0.7092,0.7079,0.709,0.7088,0.7076,0.7106,0.7092,0.7095,0.7112,0.7142,0.7144,0.7147,0.7172,0.7178,0.7183,0,0,0,0,0,0,0.7075,0.7074,0.7067,0.7091,0.7095,0.7094,0.7108,0.7098,0.7106,0.7103,0.7093,0.7094,0.7115,0.7116,0.7101,0.714,0.7121,0.7125,0.7139,0.7145,0.7149,0.7149,0.7079,0,0,0,0,0,0.7083,0.7095,0.7094,0.7115,0.7117,0.7112,0.7118,0.7112,0.7116,0.7117,0.7117,0.7121,0.7131,0.7138,0.7147,0.7174,0.7174,0.7187,0.7192,0.7195,0.7198,0.7213,0.7219,0.7157,0.7157,0.7157,0,0,0.71,0.7101,0.7109,0.712,0.7122,0.7135,0.7114,0.7128,0.7137,0.7119,0.7138,0.7138,0.7142,0.7166,0.7176,0.7166,0.7216,0.7199,0.7202,0.7203,0.7217,0.7223,0.7228,0.7159,0.7158,0.7158,0,0,0.7137,0.7139,0.7157,0.716,0.7165,0.7161,0.7166,0.7167,0.7166,0.7185,0.7172,0.7183,0.7201,0.7205,0.7209,0.7249,0.7238,0.7252,0.7276,0.7291,0.7296,0.73,0.7315,0.732,0.7255,0.7255,0.7255,0,0.7157,0.7176,0.7168,0.7183,0.7188,0.7173,0.7192,0.7195,0.7202,0.7207,0.7196,0.7219,0.722,0.7245,0.7255,0.7259,0.7264,0.7252,0.7296,0.73,0.7304,0.7318,0.7323,0.7257,0.7257,0.7257,0.7257,0,0.7201,0.7214,0.7228,0.7236,0.7243,0.726,0.7255,0.7263,0.7257,0.7254,0.7274,0.7276,0.7286,0.7291,0.7284,0.7315,0.7309,0.7297,0.7278,0.7312,0.7325,0.733,0.7259,0.7259,0.7258,0.7258,0,0,0.7252,0.7256,0.7262,0.7265,0.727,0.728,0.7296,0.7306,0.7314,0.732,0.7334,0.735,0.7339,0.7344,0.7338,0.7351,0.7383,0.7337,0.7337,0.7346,0.7418,0.7427,0.7434,0.7376,0.7377,0.7378,0.7418,0,0.7289,0.7318,0.7312,0.734,0.7353,0.7339,0.7354,0.7358,0.7357,0.7367,0.7366,0.7378,0.7363,0.7366,0.7378,0.7377,0.7398,0.7374,0.739,0.739,0.7389,0.744,0.745,0.7487,0.7423,0.7424,0.7424,0,0.7336,0.7344,0.7374,0.7377,0.7382,0.7395,0.7405,0.7415,0.742,0.7418,0.7424,0.7416,0.7433,0.7414,0.7437,0.7421,0.7428,0.7428,0.7429,0.7431,0.7409,0.7443,0.7499,0.7505,0.7432,0.7432,0.7431,0,0.7371,0.739,0.741,0.7414,0.7418,0.7428,0.743,0.7434,0.7441,0.7449,0.7453,0.7463,0.7468,0.7476,0.7471,0.7458,0.7496,0.7476,0.7495,0.7495,0.7504,0.7503,0.7562,0.7507,0.7507,0.7507,0.7507,0,0.7413,0.7432,0.7426,0.7439,0.746,0.7453,0.7474,0.7474,0.7478,0.7491,0.748,0.7492,0.7484,0.7496,0.7492,0.7512,0.7515,0.7514,0.7513,0.7515,0.7516,0.7519,0.7517,0.7509,0.7508,0.7508,0.7508,0,0.7456,0.7453,0.7474,0.7477,0.7478,0.7494,0.7496,0.7508,0.7506,0.7523,0.7526,0.7523,0.7537,0.7532,0.7546,0.7544,0.757,0.7565,0.7569,0.7568,0.7587,0.7586,0.765,0.7658,0.7598,0.7599,0.7599,0,0.7483,0.7497,0.7502,0.751,0.7513,0.7526,0.7533,0.7527,0.7535,0.7542,0.7554,0.7566,0.7576,0.7598,0.7597,0.7608,0.7604,0.7626,0.7605,0.7608,0.7605,0.7604,0.7606,0.763,0.763,0.7631,0.7631,0,0.7532,0.753,0.7541,0.7552,0.7561,0.7569,0.7576,0.7583,0.7577,0.7587,0.7601,0.7608,0.7623,0.7636,0.7646,0.7648,0.7639,0.7638,0.7643,0.7646,0.7647,0.7647,0.758,0.7636,0.7636,0.7635,0.7635,0.7635,0.7568,0.758,0.7586,0.7599,0.7604,0.7611,0.7623,0.7623,0.7634,0.7646,0.7642,0.7658,0.7664,0.7676,0.768,0.7693,0.7684,0.7692,0.7694,0.7696,0.7698,0.7645,0.7695,0.7694,0.7694,0.7694,0.7694,0,0.7617,0.762,0.7632,0.7642,0.7653,0.7644,0.7651,0.7661,0.7675,0.7681,0.7691,0.7708,0.772,0.7721,0.7733,0.7743,0.7739,0.7746,0.7746,0.7746,0.7705,0.77,0.7749,0.7749,0.7749,0.7749,0.7749,0.7749,0.7643,0.7664,0.7663,0.7687,0.769,0.7706,0.7711,0.7718,0.7723,0.7742,0.7753,0.7753,0.7758,0.777,0.7781,0.7781,0.7786,0.7795,0.7794,0.7755,0.7749,0.7744,0.7739,0.7796,0.7796,0.7834,0.7835,0.7835]}]]